User: anonymous   Login
Location: Caltech
(34.1382°N, 118.1253°W)
Time: 02:45:32
(UTC-07:00)
Language:

Cosmos-2242 - Orbit

View from above orbital plane
View from above orbital plane
View from above satellite
View from above satellite

Ground track
Ground track

The orbit data is extracted from the following two-line orbital elements,

1 22626U 93024A   16180.05112720  .00000212  00000-0  20656-4 0  9998
2 22626  82.5212  15.6235 0018226 212.4743 147.5355 14.87474581253508
Epoch (UTC): 28 June 2016 01:13:37
Eccentricity: 0.0018226
inclination: 82.5212°
perigee height: 593 km
apogee height: 618 km
right ascension of ascending node: 15.6235°
argument of perigee: 212.4743°
revolutions per day: 14.87474581
mean anomaly at epoch: 147.5355°
orbit number at epoch: 25350

The dashed part of the orbit path shows where the satellite is in the earth's shadow,  

DLR